Home   Weather   Acre   Past weeks

Flag for Israel Past Weather in Acre, Israel — Yesterday and Last 2 Weeks

Now
75 °F

Scattered clouds.


Feels Like: 78 °F
Forecast: 64 / 77 °F
Wind: 6 mph from Southwest

Location: Sde-Haifa Haifa

Current Time: May 24, 2017 at 11:12:33 am

Latest Report: May 24, 2017 at 9:50 am


Visibility: N/A

Pressure: 30.04 "Hg

Humidity: 54%

Dew Point: 57 °F

Location of AcreLocation

Past Weather in Acre — Graph

°F

Acre Temperature Yesterday

Maximum temperature yesterday: 75 °F (at 10:50 am)
Minimum temperature yesterday: 70 °F (at 9:50 pm)
Average temperature yesterday: 74 °F

High & Low Weather Summary for the Past Weeks

 TemperatureHumidityPressure
High99 °F (May 9, 11:50 am)88% (May 11, 4:50 am)30.04 "Hg (May 11, 4:50 am)
Low63 °F (May 22, 6:30 am)13% (May 9, 11:50 am)29.68 "Hg (May 19, 6:00 am)
Average76 °F61%29.88 "Hg
* Reported May 9 9:50 am — May 24 9:50 am, Acre. Weather by CustomWeather, © 2017

Note: Actual official high and low records may vary slightly from our data, if they occured in-between our weather recording intervals... More about our weather records

Advertising

Acre Weather History for the Previous 24 Hours

Scroll right to see more
 ConditionsComfort  
Time TempWeatherWind HumidityBarometerVisibility
9:50 am
Wed, May 24
75 °FScattered clouds.6 mph54%30.04 "HgN/A
8:50 am73 °FScattered clouds.2 mph57%30.04 "HgN/A
7:50 am68 °FPartly sunny.2 mph73%30.04 "HgN/A
6:50 am66 °FScattered clouds.7 mph78%30.01 "HgN/A
6:30 am66 °FScattered clouds.6 mph78%30.01 "HgN/A
9:50 pm
Tue, May 23
70 °FPassing clouds.6 mph64%30.01 "HgN/A
8:50 pm72 °FPassing clouds.7 mph69%29.98 "HgN/A
7:50 pm72 °FPassing clouds.8 mph65%29.95 "HgN/A
6:50 pm73 °FScattered clouds.9 mph61%29.95 "HgN/A
5:50 pm73 °FScattered clouds.12 mph61%29.92 "HgN/A
4:50 pm75 °FScattered clouds.9 mph57%29.92 "HgN/A
3:50 pm73 °FScattered clouds.12 mph57%29.92 "HgN/A
2:50 pm73 °FPartly sunny.13 mph57%29.92 "HgN/A
1:50 pm75 °FPartly sunny.13 mph57%29.92 "HgN/A
12:50 pm75 °FScattered clouds.12 mph54%29.92 "HgN/A
11:50 am75 °FScattered clouds.13 mph57%29.92 "HgN/A
Weather by CustomWeather, © 2017

See weather overviewHow to use our weather pages